Location: ????
(35.9841°N, 43.6190°E)
Time: 00:26:57
(UTC+00:00)

Daily predictions for brighter satellites

Satellite Brightness Start Highest point End
(mag) Time Altitude Azimuth Time Altitude Azimuth Time Altitude Azimuth
ARIANE 5 R/B 4.3 00:07:53 10° N 00:09:46 23° N 00:09:46 23° N
MSX 4.0 00:16:51 10° NNE 00:22:27 71° E 00:22:27 71° E
Meteor 1-10 Rocket 4.5 00:26:41 65° N 00:26:41 65° N 00:31:41 10° N
Cosmos 44 Rocket 4.2 00:27:19 45° NE 00:27:19 45° NE 00:30:45 10° NE
Cosmos 990 Rocket 4.3 00:27:36 10° NNW 00:32:47 65° ENE 00:37:57 10° SSE
Cosmos 967 Rocket 4.4 00:34:38 75° NW 00:34:38 75° NW 00:41:00 10° NNE
BREEZE-M DEB (TANK) 4.4 00:34:58 50° WNW 00:36:59 64° NNW 01:01:19 10° ENE
Cosmos 1570 Rocket 4.4 00:37:32 55° SE 00:38:17 62° ESE 00:43:34 10° NNE
ADEOS II 4.5 00:37:12 10° NNW 00:37:24 11° NNW 00:37:24 11° NNW
IDEFIX/ARIANE 42P 3.6 00:38:21 10° N 00:41:36 35° NNW 00:41:36 35° NNW
SL-4 R/B 3.9 00:46:19 26° N 00:46:19 26° N 00:49:26 10° NNE
PSLV R/B 4.0 00:47:05 10° NNE 00:51:13 57° E 00:51:46 52° SE
SL-8 R/B 4.2 00:53:32 47° SSE 00:53:32 47° SSE 00:57:02 10° SE
Cosmos 1605 Rocket 4.0 00:46:24 10° NNW 00:52:39 57° W 00:52:48 57° W
Cosmos 2360 Rocket 2.2 00:51:23 50° S 00:52:55 80° ESE 00:58:37 10° NNE
Cosmos 1153 Rocket 4.4 00:47:10 10° N 00:53:34 90° SSW 00:59:50 10° S
H-2A R/B 2.3 00:52:51 10° SSE 00:57:12 72° ENE 01:01:40 10° N
ALOS 4.4 00:58:10 10° NE 01:02:03 26° E 01:05:55 10° SSE
CZ-2C R/B 2.5 01:03:05 10° NNE 01:08:18 87° ESE 01:11:51 21° SSW
Cosmos 2263 Rocket 4.2 01:15:30 12° SSW 01:15:30 12° SSW 01:15:55 10° S
Cosmos 2322 Rocket 2.8 01:12:29 36° WNW 01:12:39 36° WNW 01:17:53 10° N
Cosmos 1844 Rocket 3.8 01:09:45 10° N 01:15:09 44° ENE 01:20:31 10° SE
Cosmos 1898 Rocket 3.6 01:15:29 10° NNW 01:20:32 48° WSW 01:25:36 10° S
Meteor 1-11 Rocket 3.7 01:16:51 10° NNW 01:22:24 54° W 01:27:48 10° S
Meteor 1-27 Rocket 4.1 01:22:35 32° SW 01:24:49 45° WNW 01:30:28 10° N
SL-16 R/B 3.4 01:24:46 24° WNW 01:24:53 24° WNW 01:29:22 10° N
Cosmos 1484 Rocket 3.9 01:21:42 10° NNE 01:25:34 45° E 01:29:24 10° S
Cosmos 1727 Rocket 4.5 01:24:38 31° WSW 01:26:31 38° WNW 01:32:22 10° N
Cosmos 858 Rocket 4.4 01:22:11 10° NNW 01:27:17 60° WSW 01:32:23 10° S
Hubble Space Telescope 3.1 01:29:05 11° S 01:30:53 14° SSE 01:32:58 10° SE
Okean 1 3.7 01:26:56 10° S 01:30:56 67° E 01:34:57 10° NNE
X-37B 0.4 01:32:12 63° W 01:32:31 71° SSW 01:35:41 10° SE
Cosmos 2100 Rocket 3.9 01:26:19 10° N 01:32:40 71° W 01:38:57 10° S
Cosmos 1459 Rocket 3.8 01:30:58 10° N 01:37:00 71° W 01:43:00 10° S
Cosmos 1437 Rocket 2.5 01:34:55 13° SSW 01:38:13 74° W 01:42:03 10° N
Meteor 1-31 Rocket 3.6 01:34:39 10° NNE 01:38:24 51° E 01:42:10 10° S
Cosmos 841 Rocket 4.2 01:38:22 27° W 01:39:58 33° WNW 01:44:42 10° N
Cosmos 1937 Rocket 3.7 01:35:17 10° NNW 01:40:07 43° WSW 01:44:57 10° S
Cosmos 2219 Rocket 2.5 01:35:18 10° SSW 01:40:55 71° ESE 01:46:35 10° NNE
deb Chang Zheng 4 3.4 01:37:55 10° NNE 01:42:12 85° WNW 01:46:27 10° SSW
Cosmos 1802 Rocket 3.9 01:36:34 10° N 01:42:49 80° W 01:49:07 10° S
ADEOS Rocket 3.1 01:40:26 10° S 01:47:15 72° WSW 01:53:23 10° NNW
Cosmos 2123 Rocket 3.9 01:41:21 10° S 01:47:34 80° W 01:53:54 10° N
Cosmos 1703 Rocket 3.9 01:43:28 10° S 01:47:44 65° E 01:52:03 10° NNE
NOSS 3-4 (A) 3.9 01:41:34 10° NW 01:48:49 75° WSW 01:56:46 10° SSE
NOSS 3-4 (C) 3.9 01:41:40 10° NW 01:48:56 76° WSW 01:56:53 10° SSE
Okean 1-7 3.6 01:44:48 10° S 01:48:59 59° E 01:53:10 10° NNE
SJ-6F 4.5 01:47:08 10° N 01:51:08 53° WNW 01:55:04 10° SSW
Cosmos 1908 Rocket 4.1 01:46:43 10° N 01:51:10 65° E 01:55:35 10° SSE
Cosmos 1536 3.8 01:48:27 10° NNW 01:51:51 26° W 01:55:15 10° SSW
DEBRIS 3.4 01:57:33 16° WNW 01:59:55 61° SW 02:08:32 10° SE
CZ-4B R/B 3.5 01:57:03 10° NNE 02:00:33 52° E 02:04:02 10° S
Cosmos 2237 Rocket 4.2 01:55:41 10° SSE 02:00:35 31° ESE 02:05:28 10° NE
Cosmos 2150 Rocket 4.3 01:55:48 10° NNW 02:01:15 78° ENE 02:06:35 10° SSE
COSMOS 2428 2.7 01:57:34 10° SSW 02:03:16 86° WNW 02:09:02 10° NNE
ERS-2 3.0 02:00:47 10° SSW 02:03:57 28° W 02:07:08 10° NW
CZ-4B R/B 1.4 02:01:04 10° S 02:04:08 49° W 02:07:18 10° NNW
Yuri Rocket 4.4 02:01:10 13° SW 02:04:29 32° S 02:09:07 10° ESE
CZ-4B R/B 4.1 02:00:45 10° N 02:05:10 71° WNW 02:09:38 10° SSW
FALCON 9 DEB 4.2 02:02:26 10° SSW 02:05:21 37° SE 02:08:17 10° ENE
Cosmos 2333 Rocket 2.4 02:06:42 10° SW 02:12:21 57° WNW 02:18:02 10° NNE
ATLAS 2AS CENTAUR R/B 2.8 02:05:20 10° NW 02:12:28 61° WSW 02:18:59 10° SSE
Cosmos 1733 Rocket 4.1 02:10:18 10° NW 02:13:39 22° W 02:16:59 10° SW
METEOR-M 4.1 02:08:50 10° N 02:14:09 67° WNW 02:19:26 10° SSW
OAO 3 Rocket 3.9 02:12:34 10° SW 02:17:19 49° SSE 02:22:06 10° E
Cosmos 2322 4.2 02:12:08 10° SW 02:17:22 38° WNW 02:22:39 10° N
ADEOS 4.1 02:12:52 10° N 02:17:40 38° WNW 02:22:27 10° SW
Cosmos 1544 3.2 02:14:28 10° NNW 02:17:54 47° W 02:21:21 10° SSW
USA 234 3.3 02:11:24 10° SE 02:17:54 74° SW 02:24:28 10° NW
Cosmos 1743 3.4 02:15:02 10° NNW 02:18:25 31° W 02:21:47 10° SSW
SKYMED 2 4.0 02:14:36 10° SSE 02:18:54 70° ENE 02:23:13 10° N
Cosmos 2242 Rocket 4.1 02:15:22 10° SSW 02:19:26 37° W 02:23:32 10° N
Delta 2 Rocket 4.1 02:19:27 10° SW 02:22:29 33° SSE 02:25:34 10° E
Meteor PRIRODA 3.6 02:19:58 10° N 02:23:37 86° W 02:27:14 10° SSW
Cosmos 1242 Rocket 2.9 02:27:55 10° S 02:31:34 73° E 02:35:14 10° NNE
H-2A R/B 3.6 02:28:23 10° NNE 02:32:43 54° E 02:37:06 10° S
CZ-4C R/B 3.5 02:25:17 10° NNW 02:32:49 68° ENE 02:41:15 10° SE
